Weather History for Hastings, NE

Change the Weather History Date:

Thursday, May 16, 2013

  Actual Average Record
Temperature  
Mean Temperature 69 °F 61 °F  
Max Temperature 81 °F 72 °F 94 °F (1927)
Min Temperature 57 °F 51 °F 34 °F (1929)
Degree Days  
Heating Degree Days 0 5  
Month to date heating degree days 176 117  
Since 1 July heating degree days 6273 5956  
Cooling Degree Days 4 2  
Month to date cooling degree days 25 16  
Year to date cooling degree days 28 21  
Growing Degree Days 18 (Base 50)    
Moisture  
Dew Point 57 °F    
Average Humidity 68    
Maximum Humidity 93    
Minimum Humidity 42    
Precipitation  
Precipitation T in 0.16 in 2.14 in (1954)
Month to date precipitation 0.86 2.51  
Year to date precipitation 6.99 7.76  
Snow  
Snow 0.00 in 0.00 in - ()
Month to date snowfall 0.3 0.0  
Since 1 July snowfall 35.7 28.8  
Snow Depth 0.00 in    
Sea Level Pressure  
Sea Level Pressure 29.80 in    
Wind  
Wind Speed 8 mph (SSE)    
Max Wind Speed 18 mph    
Max Gust Speed 29 mph    
Visibility 10 miles    
Events Rain    
T = Trace of Precipitation, MM = Missing Value Source: NWS Daily Summary

Daily Weather History Graph

Daily Weather History Graph

Search for Another Location

Airport:

Trip Planner

Search our weather history database for the weather conditions in past years. The results will help you decide how hot, cold, wet, or windy it might be!

Date:

Astronomy

May. 16, 2013 Rise Set
Actual Time 6:15 AM CDT 8:44 PM CDT
Civil Twilight 5:44 AM CDT 9:16 PM CDT
Nautical Twilight 5:05 AM CDT 9:55 PM CDT
Astronomical Twilight 4:22 AM CDT 10:38 PM CDT
Moon 11:51 AM CDT (5/16) 1:06 AM CDT (5/16)
Length of Visible Light 15h 31m
Length of Day
14h 29m
Waxing Crescent, 36% of the Moon is Illuminated
May 16
Waxing Crescent
May 17
First Quarter
May 24
Full
May 31
Last Quarter
Jun 8
New

Hourly Weather History & Observations

Time (CDT) Temp. Heat Index Dew Point Humidity Pressure Visibility Wind Dir Wind Speed Gust Speed Precip Events Conditions
12:53 AM 68.0 °F - 59.0 °F 73% 29.81 in 10.0 mi SSW 5.8 mph - N/A   Clear
1:53 AM 66.0 °F - 59.0 °F 78% 29.81 in 10.0 mi South 3.5 mph - N/A   Clear
2:53 AM 63.0 °F - 57.9 °F 84% 29.81 in 10.0 mi SE 3.5 mph - N/A   Clear
3:53 AM 57.9 °F - 55.0 °F 90% 29.82 in 9.0 mi Calm Calm - N/A   Clear
4:53 AM 57.9 °F - 54.0 °F 87% 29.83 in 9.0 mi Calm Calm - N/A   Clear
5:53 AM 60.1 °F - 57.9 °F 93% 29.82 in 7.0 mi SSE 5.8 mph - N/A   Partly Cloudy
6:53 AM 60.1 °F - 57.0 °F 90% 29.82 in 6.0 mi South 5.8 mph - N/A   Clear
7:53 AM 62.1 °F - 57.9 °F 86% 29.81 in 8.0 mi SE 4.6 mph - N/A   Clear
8:53 AM 66.0 °F - 59.0 °F 78% 29.81 in 9.0 mi SE 4.6 mph - N/A   Clear
9:53 AM 73.0 °F - 60.1 °F 64% 29.83 in 10.0 mi SSE 9.2 mph - N/A   Clear
10:53 AM 75.0 °F - 57.0 °F 53% 29.82 in 10.0 mi South 10.4 mph 16.1 mph N/A   Clear
11:53 AM 75.9 °F - 57.0 °F 52% 29.81 in 10.0 mi SSE 12.7 mph - N/A   Clear
12:53 PM 78.1 °F - 57.0 °F 48% 29.80 in 10.0 mi South 15.0 mph 23.0 mph N/A   Clear
1:53 PM 79.0 °F - 55.0 °F 44% 29.78 in 10.0 mi South 12.7 mph 20.7 mph N/A   Clear
2:53 PM 80.1 °F 80.2 °F 55.9 °F 43% 29.77 in 10.0 mi South 12.7 mph 19.6 mph N/A   Clear
3:53 PM 79.0 °F - 53.1 °F 40% 29.75 in 10.0 mi South 15.0 mph 23.0 mph N/A   Clear
4:53 PM 77.0 °F - 55.9 °F 48% 29.77 in 10.0 mi SSE 15.0 mph 21.9 mph N/A   Clear
5:53 PM 73.9 °F - 57.0 °F 55% 29.77 in 10.0 mi South 11.5 mph 18.4 mph N/A   Clear
6:53 PM 73.0 °F - 57.9 °F 59% 29.79 in 10.0 mi South 6.9 mph - 0.00 in Rain Light Rain
7:53 PM 73.0 °F - 57.9 °F 59% 29.75 in 10.0 mi SSE 11.5 mph - 0.00 in   Clear
8:53 PM 71.1 °F - 57.9 °F 63% 29.77 in 10.0 mi SSE 9.2 mph - N/A   Clear
9:53 PM 69.1 °F - 57.9 °F 68% 29.80 in 10.0 mi SSE 8.1 mph - N/A   Clear
10:53 PM 69.1 °F - 57.9 °F 68% 29.80 in 10.0 mi SSE 5.8 mph - N/A   Clear
11:53 PM 68.0 °F - 57.0 °F 68% 29.78 in 10.0 mi SSE 9.2 mph - N/A   Clear